Vorticity
25 12 4 12 10 7 7 1 -10 -8 -5 11 9 -2 -3 -12 1 4 8 8 12 -1 -2 4 -1 -3 -3 -1 3 9 12 12 11 4 6 6 12 7 5 6 9 8 9 7 7
30 14 16 -0 0 -10 -13 2 5 -14 6 11 5 -7 -6 -4 -4 3 18 4 -2 -1 2 -1 11 2 4 8 13 10 9 9 3 8 7 6 7 7 9 9 5 3 7 9 7
17 35 45 6 -0 2 10 19 16 15 4 -1 -14 -6 16 -3 -1 -6 -5 -13 -3 -6 -3 -8 2 8 -0 11 6 9 4 2 11 16 5 11 4 6 12 4 1 7 9 2 8
7 5 7 18 36 42 36 20 18 -2 -4 -4 10 -1 14 44 -1 1 -1 3 -6 1 3 2 19 8 6 4 7 8 6 3 9 9 5 2 1 -2 3 3 0 11 5 6 9
6 6 7 6 7 8 14 25 23 28 32 20 7 6 17 13 12 5 10 11 11 4 17 14 5 10 7 13 6 6 8 6 5 2 12 8 6 4 9 4 11 9 3 7 10
5 5 3 5 5 6 4 7 6 4 4 3 4 10 13 19 20 10 15 25 26 22 13 5 12 6 12 5 2 4 3 5 12 25 2 -3 8 -10 6 8 13 6 3 6 10
3 3 5 5 4 4 6 5 4 3 3 6 5 3 4 11 11 8 9 6 6 11 14 21 12 5 5 6 4 3 5 5 30 3 3 4 7 -3 6 10 8 1 6 6 8
6 5 4 3 5 5 3 2 0 2 3 4 6 8 11 6 4 7 8 11 9 6 14 10 7 3 2 3 11 5 7 8 13 18 2 7 3 9 5 1 7 3 5 5 8
9 15 17 17 19 18 15 12 6 5 5 7 5 2 2 10 9 5 4 8 9 8 10 -2 -1 1 2 6 1 5 16 19 -3 7 28 24 5 -5 0 2 12 -0 7 3 9
2 2 2 3 3 5 9 11 14 16 15 15 15 17 19 6 3 5 9 9 9 8 5 1 3 6 4 2 14 18 6 12 16 1 3 9 -5 7 10 0 11 0 4 10 5
4 2 1 2 2 3 2 3 3 3 6 8 8 13 12 21 25 18 11 6 8 5 3 6 8 9 21 12 7 8 9 7 6 4 10 4 2 -1 5 7 5 8 7 6 4
2 4 5 4 3 3 3 2 5 4 5 5 5 4 5 8 10 10 14 14 16 16 12 10 17 18 12 10 7 8 11 10 5 3 3 1 2 10 15 11 9 12 12 2 2
10 5 3 3 4 7 3 4 4 2 1 6 5 4 5 -1 9 5 6 10 13 14 10 9 3 9 5 8 6 7 6 10 8 6 3 7 10 10 10 6 13 6 5 6 3
10 7 10 5 5 5 5 7 5 6 4 4 8 10 2 3 -1 14 8 6 8 7 8 8 10 6 6 5 7 2 3 4 3 4 10 7 11 5 8 13 12 13 11 4 12
7 4 11 4 7 3 5 4 6 9 9 7 4 4 6 1 9 4 10 6 3 8 11 10 10 26 7 3 4 3 4 5 5 5 5 10 8 10 13 18 19 18 15 6 12
5 7 6 5 9 6 5 5 5 6 5 3 3 3 6 7 7 6 1 5 5 4 5 10 8 8 7 5 5 4 7 6 7 6 5 15 9 26 4 8 7 13 11 12 2
13 10 7 8 4 7 8 5 7 -1 1 4 1 2 2 3 11 7 5 4 -0 9 15 3 4 8 8 4 9 7 8 4 10 20 20 1 8 13 5 4 12 15 19 9 6
62 29 14 7 10 4 6 10 6 12 5 3 0 5 1 -2 5 7 8 4 4 2 1 17 9 6 11 5 3 5 9 12 12 18 24 5 10 16 3 7 10 11 14 12 1
28 50 46 24 20 14 8 8 1 13 6 3 4 4 1 1 3 -7 3 12 9 6 5 5 4 6 9 7 4 5 5 7 8 8 7 10 6 15 16 13 11 10 8 3 8
16 20 39 44 42 34 30 9 5 6 8 5 5 1 6 6 2 -2 10 -1 10 14 10 5 7 3 7 4 -0 4 6 3 9 10 3 13 10 17 2 1 13 7 7 1 6
9 13 30 36 25 31 24 10 12 4 2 5 7 3 0 11 2 9 12 3 6 1 16 8 8 5 8 6 2 2 4 6 10 6 5 9 9 10 -0 8 6 8 -2 11 20
19 20 16 24 31 25 44 40 24 11 2 7 3 6 7 4 7 9 6 6 5 3 14 12 10 7 11 5 8 7 8 5 4 4 10 -5 14 9 5 10 9 8 13 7 13
14 17 12 18 17 27 35 35 28 16 10 8 4 7 5 -1 8 11 9 6 5 1 2 11 6 2 10 7 5 2 3 6 6 5 3 -1 12 18 9 6 2 9 8 10 19
17 13 10 15 14 23 35 31 43 32 6 13 14 4 6 3 6 3 10 9 5 3 8 8 5 11 8 2 12 5 8 5 5 8 8 4 20 6 9 8 7 6 9 14 12
27 39 39 31 19 -2 17 32 55 37 12 19 11 18 6 9 5 14 13 7 7 7 4 10 9 7 3 5 9 8 3 7 10 2 7 9 18 13 11 11 6 8 3 12 9
28 20 27 21 -14 9 18 23 20 45 17 17 7 16 20 11 15 29 12 10 5 3 7 5 11 7 7 5 5 5 4 6 5 7 9 11 16 9 5 -2 11 2 14 20 6
27 19 5 27 -4 -15 22 30 42 26 49 5 8 17 21 13 12 1 -6 -1 7 4 7 11 4 8 8 5 8 19 5 4 5 8 2 4 24 9 -0 1 5 2 14 9 21
Height
5832 5836 5839 5842 5845 5847 5851 5854 5855 5857 5860 5864 5867 5867 5869 5870 5871 5872 5874 5876 5872 5872 5873 5875 5875 5874 5873 5872 5872 5870 5871 5870 5867 5864 5863 5861 5860 5857 5855 5852 5850 5846 5843 5840 5837
5826 5829 5832 5834 5837 5840 5842 5844 5845 5849 5851 5854 5857 5860 5861 5863 5864 5867 5869 5866 5868 5867 5868 5868 5869 5869 5868 5867 5866 5866 5866 5865 5863 5860 5858 5857 5856 5853 5850 5847 5844 5841 5838 5835 5833
5820 5822 5824 5826 5827 5832 5833 5835 5838 5841 5843 5844 5847 5849 5851 5854 5857 5862 5861 5858 5861 5861 5861 5862 5863 5863 5863 5862 5860 5861 5862 5859 5859 5855 5853 5853 5851 5848 5846 5843 5840 5836 5834 5831 5829
5814 5816 5817 5818 5820 5823 5822 5825 5827 5830 5832 5834 5836 5838 5840 5841 5844 5849 5850 5849 5853 5855 5854 5857 5857 5857 5857 5856 5855 5855 5856 5854 5853 5851 5849 5848 5846 5845 5842 5840 5836 5832 5831 5828 5824
5809 5810 5811 5812 5814 5815 5815 5817 5818 5820 5824 5826 5826 5828 5832 5833 5839 5836 5842 5844 5845 5847 5848 5849 5849 5850 5851 5850 5849 5848 5851 5847 5846 5844 5844 5843 5841 5840 5838 5836 5832 5829 5827 5824 5820
5801 5802 5803 5804 5805 5806 5806 5808 5810 5814 5817 5817 5820 5822 5824 5829 5828 5826 5834 5835 5836 5838 5840 5842 5844 5844 5843 5844 5844 5843 5844 5844 5842 5839 5839 5838 5837 5834 5834 5831 5828 5825 5822 5819 5815
5791 5792 5793 5795 5797 5797 5799 5801 5803 5807 5809 5811 5813 5814 5818 5826 5822 5823 5826 5828 5830 5831 5834 5836 5836 5837 5840 5839 5837 5840 5840 5839 5836 5835 5833 5832 5832 5831 5828 5827 5825 5822 5819 5815 5811
5782 5783 5784 5785 5787 5789 5791 5793 5795 5798 5800 5802 5804 5806 5812 5816 5813 5817 5817 5821 5823 5824 5827 5829 5831 5832 5833 5833 5836 5837 5835 5835 5831 5830 5827 5827 5827 5827 5824 5823 5823 5820 5816 5812 5808
5773 5773 5775 5775 5777 5779 5781 5782 5785 5787 5790 5793 5795 5797 5804 5809 5807 5810 5812 5814 5816 5819 5821 5823 5825 5828 5826 5829 5831 5830 5830 5829 5829 5823 5822 5823 5824 5824 5822 5819 5820 5816 5813 5810 5805
5762 5763 5765 5766 5768 5770 5771 5772 5775 5778 5780 5782 5785 5789 5794 5799 5800 5802 5805 5806 5809 5812 5813 5816 5819 5819 5822 5825 5826 5825 5823 5824 5824 5821 5818 5818 5818 5819 5820 5817 5814 5812 5809 5806 5802
5749 5750 5752 5755 5757 5759 5762 5763 5766 5768 5772 5775 5777 5780 5782 5785 5791 5793 5796 5798 5801 5803 5808 5811 5812 5814 5820 5818 5818 5817 5818 5820 5819 5816 5814 5814 5813 5815 5813 5811 5809 5807 5804 5801 5798
5733 5735 5737 5740 5743 5746 5749 5751 5754 5757 5761 5764 5767 5772 5775 5779 5783 5784 5787 5790 5794 5798 5802 5802 5804 5812 5810 5810 5810 5812 5813 5815 5813 5811 5809 5809 5810 5810 5807 5806 5805 5802 5800 5797 5794
5714 5716 5720 5723 5728 5730 5734 5738 5740 5743 5746 5755 5758 5763 5767 5770 5774 5778 5780 5784 5788 5791 5792 5797 5804 5802 5803 5803 5804 5807 5808 5809 5807 5805 5802 5803 5805 5802 5801 5801 5799 5797 5795 5793 5790
5693 5696 5699 5704 5712 5714 5717 5723 5726 5729 5731 5740 5748 5752 5757 5761 5765 5769 5774 5779 5780 5783 5788 5790 5794 5793 5797 5797 5800 5801 5803 5802 5800 5799 5799 5800 5799 5797 5797 5795 5794 5791 5790 5788 5786
5668 5673 5677 5683 5690 5696 5702 5706 5710 5715 5717 5726 5735 5739 5746 5750 5761 5762 5768 5769 5773 5779 5780 5786 5786 5790 5791 5794 5794 5796 5795 5795 5795 5795 5794 5798 5794 5794 5792 5791 5789 5788 5786 5784 5782
5634 5643 5652 5659 5668 5673 5681 5685 5692 5697 5701 5708 5719 5727 5735 5742 5748 5753 5757 5762 5767 5768 5772 5777 5781 5781 5784 5786 5786 5788 5788 5790 5791 5791 5789 5792 5790 5792 5789 5787 5786 5784 5782 5781 5779
5601 5610 5620 5633 5644 5648 5655 5662 5668 5676 5695 5694 5705 5716 5723 5731 5736 5743 5747 5752 5757 5760 5764 5770 5771 5775 5778 5778 5780 5781 5784 5787 5787 5786 5786 5784 5785 5787 5784 5782 5782 5780 5778 5778 5775
5567 5577 5587 5600 5611 5620 5627 5636 5642 5676 5679 5684 5693 5700 5708 5719 5725 5731 5736 5740 5746 5752 5758 5761 5764 5770 5772 5773 5776 5776 5778 5781 5781 5782 5786 5780 5782 5784 5778 5778 5778 5776 5775 5774 5772
5543 5548 5556 5567 5576 5586 5593 5602 5643 5662 5666 5670 5675 5679 5694 5703 5714 5719 5726 5731 5738 5745 5752 5755 5760 5764 5764 5769 5771 5770 5771 5776 5777 5778 5777 5780 5779 5778 5775 5775 5774 5773 5773 5772 5770
5527 5530 5534 5538 5547 5553 5557 5595 5629 5640 5644 5651 5656 5667 5675 5689 5700 5707 5715 5721 5726 5735 5743 5747 5752 5755 5761 5760 5761 5764 5767 5770 5771 5772 5773 5776 5776 5777 5774 5772 5770 5770 5770 5769 5768
5514 5514 5515 5518 5520 5526 5529 5586 5608 5613 5618 5629 5640 5651 5660 5668 5683 5693 5704 5711 5719 5726 5732 5737 5744 5747 5751 5749 5755 5758 5762 5766 5766 5767 5769 5773 5777 5770 5769 5769 5767 5766 5767 5767 5765
5499 5503 5501 5501 5505 5510 5516 5564 5574 5582 5588 5606 5614 5633 5645 5656 5668 5679 5691 5700 5708 5715 5723 5730 5734 5737 5746 5748 5749 5750 5756 5758 5759 5762 5764 5767 5772 5766 5766 5766 5765 5764 5764 5764 5764
5487 5490 5492 5491 5494 5501 5514 5527 5535 5555 5570 5582 5594 5613 5630 5638 5650 5667 5678 5687 5695 5701 5710 5715 5717 5725 5734 5734 5738 5742 5747 5752 5755 5756 5758 5762 5766 5762 5763 5762 5763 5762 5762 5762 5762
5477 5478 5480 5482 5487 5492 5500 5505 5517 5534 5547 5562 5579 5592 5613 5622 5637 5651 5663 5672 5682 5690 5699 5705 5710 5718 5724 5734 5737 5738 5742 5745 5748 5749 5754 5756 5760 5761 5760 5760 5760 5760 5760 5761 5761
5467 5465 5467 5472 5478 5486 5488 5495 5503 5516 5528 5541 5562 5579 5595 5609 5623 5635 5650 5658 5668 5677 5685 5694 5703 5709 5716 5721 5725 5730 5734 5737 5739 5745 5746 5752 5753 5755 5756 5757 5756 5756 5757 5758 5759
5463 5460 5464 5469 5473 5476 5480 5489 5493 5499 5510 5526 5542 5558 5574 5592 5607 5622 5633 5644 5655 5663 5669 5683 5695 5700 5705 5712 5716 5721 5726 5728 5732 5738 5740 5743 5748 5750 5751 5752 5754 5753 5754 5756 5758
5464 5462 5463 5467 5469 5472 5475 5476 5481 5490 5496 5514 5529 5541 5554 5567 5586 5597 5610 5626 5640 5652 5660 5671 5683 5689 5697 5703 5707 5712 5717 5721 5726 5731 5734 5738 5745 5745 5745 5747 5750 5750 5751 5753 5756